Location: Johnson City
(36.3130°N, 82.3540°W)
Time: 07:03:56
(UTC-05:00)

N. Korean satellite - Pass Details

Date: 04 December 2021
Orbit: 447 x 490 km, 97.3° (Epoch: 26 January)

Event Time Altitude Azimuth Distance (km) Brightness Sun altitude
Rises 06:08:23 0° 1° (N) 2,456 10.0 -15.2°
Reaches altitude 10° 06:10:32 10° 352° (N) 1,577 8.9 -14.7°
Maximum altitude 06:13:37 33° 286° (WNW) 766 7.0 -14.2°
Drops below altitude 10° 06:16:40 10° 220° (SW) 1,567 8.9 -13.6°
Sets 06:18:48 0° 211° (SSW) 2,436 10.0 -13.2°
